Location: *
(32.8667°N, 13.1833°E)
Time: 07:49:40
(UTC+00:00)

Cosmos 2263 Rocket - Pass Details

Date: 18 July 2019
Orbit: 822 x 850 km, 71.0° (Epoch: 24 August)

Event Time Altitude Azimuth Distance (km) Brightness Sun altitude
Rises 20:13:52 0° 336° (NNW) 3,417 6.6 -21.2°
Reaches altitude 10° 20:16:20 10° 334° (NNW) 2,479 5.7 -21.5°
Maximum altitude 20:21:58 68° 253° (WSW) 911 2.4 -22.4°
Enters shadow 20:24:05 39° 183° (S) 1,251 2.7 -22.7°
